Temp
62 61 61 60 59 59 59 60 61 61 61 62 62 62 62 62 62 60 67 78 76 73 76 75 76 76 76 74 73 68 56 51 54 60 63 68 64 69 71 66 68 69 66 68 68
61 60 60 60 59 59 59 60 60 61 61 61 62 62 62 62 60 65 77 75 75 75 77 76 73 74 69 69 69 64 53 58 66 66 63 68 67 67 65 64 63 63 66 68 68
61 59 60 60 59 58 58 59 60 61 61 61 61 61 62 60 63 76 76 75 75 76 81 79 78 75 65 67 65 62 58 65 68 71 72 67 66 70 63 58 63 60 61 64 64
60 59 59 58 59 58 58 58 60 61 61 61 61 61 62 59 64 74 77 77 76 79 80 77 73 67 62 64 67 63 67 68 71 75 72 66 68 64 65 63 68 65 65 63 61
59 59 58 58 58 58 58 58 59 60 60 60 61 61 59 63 72 71 77 77 76 79 78 74 70 67 63 65 65 62 66 68 70 70 70 69 64 63 60 64 65 65 64 61 60
59 58 58 57 58 58 57 57 58 59 59 60 61 62 63 63 77 75 76 77 79 76 77 78 72 73 66 66 64 64 67 67 68 68 68 64 62 64 62 64 63 63 61 61 60
59 58 57 57 57 58 57 57 57 58 59 61 62 66 65 75 80 76 79 78 78 81 75 77 79 73 69 63 66 65 62 65 65 66 65 67 60 60 63 63 61 61 61 60 60
58 57 57 57 58 57 57 56 57 59 60 63 63 62 68 79 76 77 76 77 78 77 79 80 81 73 67 68 65 60 60 55 61 66 67 66 55 59 63 61 60 61 61 60 59
58 57 57 57 57 57 56 55 58 60 62 63 60 61 70 77 79 83 82 82 79 78 78 89 75 67 66 59 55 56 52 53 61 66 64 62 56 61 63 62 60 60 60 60 58
58 57 56 56 57 56 55 57 61 61 64 68 74 66 73 77 80 84 80 84 80 78 76 72 66 59 56 55 50 54 52 55 57 62 62 57 57 59 61 61 60 59 59 59 59
58 57 56 56 56 56 54 59 66 65 62 71 72 73 77 84 86 82 84 81 78 74 65 65 61 57 63 62 64 63 58 59 60 63 59 56 56 59 60 60 58 59 59 59 60
58 57 57 56 56 56 49 66 69 70 64 73 73 76 81 81 78 82 86 76 72 67 69 63 58 68 68 67 64 62 57 57 60 62 58 56 54 60 61 60 60 59 58 60 61
57 57 56 56 56 52 58 69 71 69 61 70 73 73 79 83 78 78 84 75 71 66 66 61 69 72 70 65 63 59 58 59 59 59 58 56 52 56 61 62 61 62 63 61 61
56 56 56 55 56 57 64 70 68 69 56 65 70 77 79 81 76 85 85 79 68 69 67 66 69 69 66 66 64 56 66 65 59 55 49 55 43 50 54 56 60 61 62 60 61
56 56 56 54 54 63 70 65 65 71 45 70 70 79 74 74 78 80 83 76 71 71 69 67 67 65 64 67 68 63 68 63 60 53 48 47 44 48 50 50 54 58 60 60 62
56 56 56 52 48 61 64 64 70 57 46 65 71 69 68 71 75 79 78 79 75 70 68 70 70 69 71 72 70 69 63 59 53 48 42 46 45 45 46 51 54 57 59 60 60
56 56 53 58 67 61 63 68 55 48 64 63 63 69 65 65 70 72 71 66 64 57 57 65 66 70 73 67 67 62 54 46 43 44 42 47 44 47 54 56 56 57 58 59 59
54 53 51 57 55 59 68 63 45 59 59 69 67 66 62 66 66 68 65 62 64 63 56 56 55 66 72 67 62 59 54 44 38 39 45 49 43 49 56 57 59 59 58 58 57
52 49 49 56 56 59 66 51 52 57 66 65 64 59 59 65 63 64 61 63 66 65 58 54 57 70 72 70 68 58 53 56 46 42 39 43 48 55 56 56 57 57 57 56 56
52 57 60 61 61 66 60 52 57 65 68 66 57 59 54 59 61 59 59 66 66 69 67 60 53 65 69 70 66 60 62 49 46 37 35 40 42 44 50 52 55 55 54 55 55
56 62 67 62 64 63 55 55 62 69 70 65 60 59 58 58 59 59 60 64 67 68 67 61 57 59 63 59 58 58 54 49 48 45 38 35 39 51 52 55 54 54 54 54 55
56 58 66 67 61 50 55 60 63 68 69 68 65 63 61 59 56 58 59 63 67 67 61 60 55 51 57 62 63 59 56 53 44 43 41 38 40 53 53 53 54 53 55 55 56
56 57 66 68 55 53 57 64 67 66 66 67 64 65 62 58 53 59 61 68 67 65 61 60 51 46 51 56 60 56 58 51 48 45 42 41 41 55 54 53 52 53 54 56 56
58 58 61 59 56 56 54 59 61 68 66 66 63 63 60 58 58 56 61 68 68 66 63 62 53 51 46 50 53 53 58 55 50 41 43 44 47 54 53 52 52 52 54 54 53
59 58 60 56 58 54 53 57 59 61 65 64 60 61 60 54 55 56 60 63 66 64 61 56 50 50 53 57 56 55 54 55 50 48 45 49 49 52 54 54 53 54 53 52 51
59 59 59 55 56 55 51 53 57 60 61 60 59 62 59 58 61 59 60 57 60 62 57 56 49 50 50 57 56 52 54 55 54 54 53 52 50 52 53 55 55 54 52 50 54
59 61 61 52 54 52 53 56 59 59 64 65 63 60 59 62 65 65 63 61 59 57 54 52 49 46 45 53 53 46 50 52 54 54 51 46 49 52 51 51 50 50 52 53 55
MSLP
1015.94 1015.75 1015.52 1015.35 1015.20 1015.00 1014.71 1014.47 1014.28 1014.13 1014.00 1013.87 1013.79 1013.66 1013.53 1013.36 1013.10 1012.97 1012.11 1010.38 1010.45 1010.93 1011.09 1011.81 1011.96 1011.84 1012.11 1012.42 1012.78 1013.49 1014.82 1015.75 1015.49 1015.17 1014.89 1015.00 1015.51 1015.96 1016.12 1016.56 1016.93 1017.28 1017.82 1018.07 1018.74
1015.98 1015.73 1015.47 1015.21 1015.06 1014.87 1014.63 1014.40 1014.26 1014.08 1013.93 1013.85 1013.77 1013.64 1013.46 1013.31 1013.05 1012.11 1010.17 1009.89 1010.23 1010.32 1010.97 1011.43 1011.95 1012.10 1012.37 1012.62 1013.08 1013.69 1014.89 1014.97 1014.55 1014.42 1014.54 1014.93 1015.41 1015.99 1016.58 1016.91 1017.33 1017.78 1018.05 1018.44 1019.16
1015.96 1015.70 1015.39 1015.18 1014.95 1014.77 1014.55 1014.33 1014.12 1013.98 1013.88 1013.78 1013.67 1013.51 1013.34 1013.31 1012.66 1010.37 1009.38 1009.64 1009.92 1009.90 1010.23 1010.92 1011.34 1011.87 1012.43 1012.62 1013.20 1013.78 1014.19 1014.25 1013.78 1013.67 1013.81 1014.80 1015.58 1016.11 1016.61 1017.29 1017.19 1017.76 1018.39 1018.95 1019.47
1015.89 1015.63 1015.31 1015.10 1014.83 1014.66 1014.41 1014.21 1013.98 1013.81 1013.73 1013.62 1013.57 1013.33 1013.21 1013.13 1011.71 1009.72 1009.21 1009.19 1009.58 1009.74 1010.51 1010.86 1011.42 1012.05 1012.58 1012.99 1013.20 1013.70 1013.62 1013.69 1013.22 1013.28 1013.74 1014.81 1015.69 1016.41 1016.92 1017.19 1016.87 1017.45 1018.16 1018.85 1019.76
1015.82 1015.48 1015.27 1015.05 1014.75 1014.48 1014.24 1014.11 1013.93 1013.79 1013.64 1013.54 1013.32 1013.13 1013.09 1012.33 1010.38 1009.58 1009.17 1009.22 1009.81 1009.81 1010.47 1010.94 1011.55 1012.07 1012.61 1013.03 1013.41 1013.79 1013.88 1013.86 1013.55 1013.68 1014.05 1014.81 1015.82 1016.51 1017.31 1017.45 1017.56 1017.93 1018.66 1019.30 1019.77
1015.79 1015.44 1015.18 1014.97 1014.70 1014.41 1014.14 1013.96 1013.80 1013.61 1013.48 1013.32 1013.14 1013.11 1012.75 1010.97 1009.25 1009.34 1009.29 1009.78 1009.70 1010.07 1010.33 1010.84 1011.09 1011.40 1012.44 1013.02 1013.57 1013.89 1013.71 1013.74 1013.74 1014.06 1014.63 1015.33 1016.23 1016.52 1017.41 1017.53 1017.88 1018.38 1018.62 1019.21 1019.48
1015.75 1015.38 1015.04 1014.83 1014.58 1014.29 1013.96 1013.72 1013.58 1013.39 1013.23 1013.01 1013.00 1012.95 1012.04 1009.68 1008.99 1009.51 1009.49 1009.55 1009.68 1009.89 1010.32 1010.63 1010.79 1011.45 1012.36 1013.24 1013.69 1013.90 1014.11 1014.05 1013.97 1014.35 1014.93 1015.40 1016.47 1016.45 1016.97 1017.73 1018.12 1018.59 1019.09 1019.24 1019.32
1015.67 1015.32 1014.92 1014.66 1014.43 1014.20 1013.81 1013.42 1013.21 1013.07 1012.91 1012.74 1012.88 1012.67 1010.83 1008.80 1009.02 1009.81 1009.73 1009.60 1009.75 1010.01 1010.16 1010.29 1010.48 1011.76 1012.65 1013.51 1013.99 1014.26 1014.48 1014.72 1013.98 1014.27 1014.71 1015.38 1015.68 1016.34 1016.85 1017.45 1018.01 1018.42 1018.84 1019.03 1019.33
1015.57 1015.20 1014.87 1014.51 1014.27 1014.02 1013.68 1013.21 1012.78 1012.72 1012.75 1012.69 1012.78 1012.14 1009.95 1008.74 1008.83 1008.54 1008.93 1009.28 1009.59 1009.96 1010.16 1010.39 1010.86 1012.28 1013.08 1013.87 1014.59 1014.70 1014.72 1014.76 1014.05 1014.11 1014.91 1015.57 1015.66 1015.96 1016.79 1017.41 1017.75 1017.83 1018.23 1018.89 1019.19
1015.46 1015.14 1014.83 1014.46 1014.12 1013.86 1013.31 1012.87 1012.59 1012.60 1012.73 1012.64 1012.07 1011.65 1009.42 1008.37 1007.78 1008.08 1008.62 1008.67 1009.13 1009.65 1010.35 1010.77 1011.72 1012.88 1013.64 1014.07 1014.10 1014.07 1014.39 1013.95 1013.96 1014.01 1014.65 1015.33 1015.35 1016.02 1016.73 1017.32 1017.72 1017.93 1018.38 1018.54 1018.69
1015.33 1015.03 1014.72 1014.40 1014.03 1013.83 1013.24 1012.81 1012.93 1012.56 1012.10 1011.06 1010.41 1009.74 1008.74 1007.91 1007.37 1007.63 1008.09 1008.57 1008.89 1009.43 1010.37 1011.00 1011.88 1012.53 1012.13 1012.58 1012.29 1012.60 1012.99 1012.85 1012.78 1013.33 1014.37 1014.84 1015.30 1015.65 1016.46 1017.21 1017.50 1017.83 1018.12 1017.87 1017.92
1015.17 1014.77 1014.51 1014.26 1013.95 1013.75 1013.77 1012.58 1011.30 1011.07 1010.87 1009.83 1009.65 1009.11 1008.34 1007.96 1007.75 1007.57 1007.63 1008.32 1009.06 1009.60 1010.16 1011.18 1011.19 1010.47 1010.87 1011.11 1011.60 1012.00 1012.47 1012.62 1012.71 1013.35 1014.25 1014.94 1015.50 1015.97 1016.32 1016.65 1017.12 1017.44 1017.82 1017.61 1017.60
1014.98 1014.59 1014.25 1014.01 1013.70 1013.61 1012.88 1011.29 1010.49 1010.53 1010.75 1009.41 1008.94 1008.44 1007.83 1007.82 1007.61 1007.25 1007.53 1008.04 1008.70 1009.52 1009.95 1010.43 1009.72 1009.87 1010.17 1010.34 1010.98 1011.31 1011.82 1011.93 1012.67 1013.86 1014.93 1015.30 1015.72 1015.74 1015.94 1016.49 1016.88 1016.98 1017.11 1017.17 1017.30
1014.79 1014.35 1013.97 1013.65 1013.88 1012.83 1011.91 1010.52 1010.44 1010.55 1010.73 1009.34 1008.39 1007.27 1007.25 1007.19 1007.30 1006.68 1006.84 1007.63 1008.55 1009.04 1009.75 1010.01 1009.14 1009.25 1009.53 1009.95 1010.40 1010.85 1010.55 1011.30 1012.59 1013.95 1015.18 1015.61 1016.38 1015.77 1015.84 1015.97 1016.12 1016.32 1016.49 1016.52 1016.60
1014.55 1014.12 1013.81 1013.65 1013.40 1012.29 1010.86 1010.57 1010.42 1010.35 1010.54 1008.85 1007.72 1006.69 1007.07 1007.42 1006.81 1006.54 1006.52 1007.29 1008.05 1008.71 1009.45 1009.04 1009.09 1009.02 1009.15 1009.07 1009.56 1009.93 1010.11 1011.18 1012.50 1014.15 1015.45 1016.35 1017.01 1015.73 1016.06 1016.01 1015.59 1015.62 1015.83 1016.02 1015.81
1014.29 1013.92 1013.67 1013.59 1013.43 1010.93 1010.52 1010.44 1010.51 1010.89 1010.22 1008.82 1007.87 1007.49 1007.45 1007.35 1007.12 1006.78 1006.75 1007.06 1007.59 1008.48 1009.09 1008.94 1008.71 1008.67 1008.31 1008.07 1008.69 1009.58 1010.66 1012.06 1013.53 1014.95 1016.41 1016.12 1016.84 1016.27 1016.01 1015.14 1014.87 1015.18 1015.47 1015.48 1015.62
1013.87 1013.63 1013.61 1012.94 1011.52 1010.53 1010.51 1010.76 1011.39 1011.27 1010.34 1009.53 1008.74 1008.43 1008.34 1008.01 1007.64 1007.39 1007.39 1007.76 1008.27 1009.15 1009.48 1009.10 1008.39 1007.90 1007.60 1008.02 1008.92 1009.93 1011.71 1013.08 1014.44 1015.43 1016.04 1016.29 1016.93 1015.25 1014.83 1014.67 1014.76 1014.95 1015.47 1015.68 1015.98
1013.34 1013.08 1012.65 1011.63 1010.86 1010.56 1010.54 1011.03 1011.61 1011.07 1010.47 1009.66 1009.43 1009.18 1009.35 1009.26 1008.66 1008.25 1008.23 1008.61 1008.74 1009.03 1009.79 1009.65 1008.75 1007.91 1007.60 1007.94 1008.89 1009.98 1011.49 1013.24 1014.35 1015.78 1016.04 1016.27 1015.96 1014.35 1014.44 1014.44 1014.64 1014.85 1015.35 1015.91 1016.26
1012.92 1012.80 1012.39 1010.50 1010.57 1011.05 1011.06 1011.93 1011.84 1011.21 1010.48 1010.05 1009.90 1010.08 1010.09 1009.74 1009.78 1009.13 1008.95 1008.91 1008.74 1009.04 1009.68 1009.71 1009.03 1007.94 1007.73 1007.89 1008.80 1010.21 1011.32 1012.19 1013.79 1015.45 1016.13 1016.02 1015.44 1014.32 1014.31 1014.55 1014.85 1015.17 1015.66 1016.13 1016.38
1012.88 1012.31 1011.37 1010.24 1010.31 1010.62 1011.33 1012.18 1011.65 1010.83 1010.26 1010.18 1010.39 1010.70 1011.06 1010.93 1010.57 1009.93 1009.40 1009.15 1009.02 1009.24 1009.50 1009.82 1009.64 1008.86 1008.41 1008.53 1009.21 1009.73 1010.85 1012.38 1014.11 1015.62 1016.33 1016.27 1016.01 1015.31 1014.78 1014.87 1015.02 1015.45 1015.76 1016.12 1016.38
1012.66 1012.19 1010.93 1010.38 1010.42 1010.97 1012.19 1011.97 1011.16 1010.25 1010.10 1010.18 1010.52 1011.15 1011.57 1011.56 1011.55 1010.77 1010.12 1009.75 1009.54 1009.50 1009.52 1010.03 1010.64 1010.11 1009.67 1009.54 1009.73 1010.33 1011.29 1013.00 1014.38 1015.49 1016.31 1016.45 1015.95 1014.10 1014.13 1014.02 1014.55 1014.94 1015.49 1015.85 1016.38
1012.69 1012.57 1011.03 1010.51 1011.28 1012.48 1012.40 1011.45 1010.63 1010.14 1009.92 1010.10 1010.58 1011.12 1011.65 1011.89 1011.73 1011.47 1010.41 1009.66 1009.62 1009.89 1010.20 1010.82 1011.37 1011.36 1010.83 1010.37 1010.48 1010.64 1011.45 1012.87 1014.56 1015.64 1016.23 1016.35 1014.86 1013.87 1014.20 1014.34 1014.51 1014.69 1015.24 1015.79 1016.15
1013.30 1012.61 1011.09 1010.73 1011.85 1012.68 1012.00 1011.26 1010.53 1010.01 1009.94 1010.13 1010.71 1011.03 1011.60 1011.81 1012.00 1011.46 1010.68 1010.12 1009.88 1010.22 1010.57 1011.06 1011.74 1012.22 1011.73 1011.63 1011.14 1011.53 1012.01 1013.00 1014.07 1014.89 1015.62 1016.07 1014.71 1014.13 1014.29 1014.42 1014.53 1014.94 1015.37 1015.95 1016.46
1013.65 1013.02 1012.27 1012.02 1012.37 1012.34 1012.09 1011.32 1010.58 1009.86 1009.88 1010.20 1010.81 1011.41 1011.58 1011.80 1012.07 1011.77 1011.21 1010.53 1010.45 1010.54 1010.77 1011.15 1012.35 1012.83 1012.94 1012.66 1012.52 1012.53 1012.34 1012.69 1013.70 1014.77 1015.20 1015.37 1015.03 1014.23 1014.46 1014.73 1015.10 1015.62 1016.03 1016.48 1017.00
1013.58 1013.38 1012.64 1012.98 1013.09 1012.84 1012.36 1011.66 1010.88 1010.33 1010.12 1010.26 1010.67 1010.90 1011.20 1011.76 1011.97 1011.84 1011.62 1011.15 1011.22 1011.22 1011.32 1011.98 1012.98 1013.17 1013.07 1012.98 1012.84 1013.03 1012.99 1013.01 1013.64 1014.32 1014.98 1015.19 1015.32 1014.91 1014.85 1014.89 1015.34 1015.79 1016.40 1016.96 1017.53
1013.88 1013.35 1012.94 1013.18 1013.32 1013.20 1012.85 1012.26 1011.67 1011.06 1010.78 1010.61 1010.81 1010.87 1011.00 1011.06 1011.15 1011.29 1011.38 1011.35 1011.31 1011.56 1012.04 1012.70 1013.49 1013.73 1013.55 1013.20 1013.23 1013.51 1013.53 1013.52 1013.88 1014.27 1014.68 1015.13 1015.22 1015.28 1015.20 1015.25 1015.81 1016.33 1016.89 1017.66 1018.50
1013.78 1013.15 1012.99 1013.75 1013.70 1013.65 1013.18 1012.61 1012.14 1011.85 1011.03 1010.79 1010.75 1011.02 1010.97 1010.63 1010.53 1010.10 1010.93 1011.51 1011.85 1012.17 1012.92 1013.47 1014.21 1014.83 1014.56 1013.95 1013.66 1014.08 1014.18 1014.27 1014.34 1014.74 1015.22 1015.66 1016.05 1016.02 1016.40 1016.60 1016.84 1017.22 1017.57 1017.95 1017.98
Wind_Speed
10 11 11 10 9 8 8 8 8 8 7 8 7 7 7 8 8 1 4 7 5 15 9 7 1 2 3 2 3 3 5 2 3 4 2 5 5 2 2 6 2 1 5 3 14
11 11 10 10 10 9 9 8 8 7 7 7 6 6 6 7 1 4 6 8 17 15 7 10 6 4 1 3 2 4 4 7 5 4 4 6 4 6 3 3 0 3 4 12 13
11 11 11 10 9 9 10 10 8 7 7 7 6 6 5 4 2 7 14 12 15 11 7 5 6 6 1 1 2 2 4 4 5 6 8 8 4 3 7 3 5 6 8 12 11
11 11 11 10 10 9 10 10 10 9 8 7 6 5 5 1 5 3 14 16 14 7 7 6 4 4 2 3 2 2 4 4 4 2 7 9 8 4 1 3 3 11 14 9 10
12 12 11 10 10 10 11 11 10 9 9 8 6 4 0 0 7 2 13 12 7 4 4 4 3 5 5 3 2 2 3 5 6 1 7 8 4 6 2 2 9 12 9 9 8
12 12 11 10 10 10 11 11 11 9 9 8 5 2 0 1 5 8 11 8 5 4 2 6 4 4 4 2 3 3 1 2 5 6 4 6 4 3 4 6 8 10 11 10 11
13 13 12 11 11 11 12 13 11 9 8 6 3 2 1 6 6 7 8 5 6 5 1 3 4 2 4 3 2 1 2 5 1 3 3 7 2 5 6 8 10 8 8 9 10
14 14 13 12 12 12 13 14 13 10 7 5 4 2 6 2 7 8 3 2 2 1 1 3 8 7 4 3 6 4 4 2 2 8 4 4 8 3 12 12 11 9 9 9 8
14 14 13 13 12 13 14 16 13 6 3 5 2 1 6 1 4 6 7 5 4 3 2 3 4 4 4 5 3 4 3 4 7 6 5 6 6 7 10 11 10 10 11 8 7
13 14 13 13 12 13 17 6 4 3 2 3 3 2 2 4 3 5 3 3 3 5 5 3 5 4 3 4 6 6 5 6 6 7 8 8 9 7 10 10 9 8 5 7 8
13 14 13 12 11 11 8 1 4 2 1 7 5 3 4 5 2 3 5 5 2 2 3 1 5 6 12 13 6 5 6 8 3 5 4 10 6 11 12 8 7 6 6 8 9
14 15 14 12 10 9 2 3 4 4 6 8 4 6 3 0 3 3 7 4 4 5 4 4 4 11 4 5 5 5 3 6 3 2 2 3 4 7 11 13 8 6 6 10 5
13 13 14 12 10 2 2 4 5 3 2 7 5 5 5 8 6 6 8 3 4 2 4 5 11 4 2 3 3 4 5 5 4 4 2 5 5 6 6 10 7 7 9 7 9
13 14 14 15 2 1 4 1 3 4 6 7 3 6 5 6 4 5 6 6 1 8 5 6 4 3 3 5 7 5 8 4 6 4 4 2 5 5 6 9 13 10 10 8 11
13 14 12 6 3 2 1 5 2 4 5 6 2 1 1 5 4 4 3 4 9 7 5 13 3 3 4 6 7 10 4 5 4 4 3 1 2 6 1 6 10 11 10 9 11
13 12 9 1 1 6 4 5 3 8 1 7 4 3 4 3 3 4 3 4 2 5 2 10 2 4 8 4 5 3 4 6 5 5 1 4 5 7 5 6 4 6 6 6 5
15 12 4 2 3 3 2 4 7 5 3 5 3 4 4 2 3 3 3 2 5 2 4 5 6 4 3 0 3 7 6 4 3 3 6 4 3 10 5 7 6 7 7 7 6
20 7 6 6 4 6 3 8 3 3 3 4 5 3 4 5 2 4 3 4 1 4 2 3 9 1 0 4 6 6 8 7 6 4 5 3 6 6 5 6 5 6 5 5 5
12 1 2 5 7 2 7 5 7 4 3 3 1 5 5 2 1 3 1 6 5 5 6 6 6 3 3 2 6 3 4 4 5 2 2 3 6 7 1 2 2 6 5 6 7
2 2 4 2 6 4 7 4 3 4 2 1 2 1 2 6 5 3 2 1 2 3 6 3 3 1 4 2 3 2 4 2 3 3 5 3 4 6 5 8 7 7 8 8 6
2 4 3 3 2 7 4 6 5 5 4 2 3 2 2 1 1 4 3 1 3 4 4 2 3 6 2 1 2 4 2 6 4 4 3 2 7 7 9 10 10 10 9 8 6
2 3 4 1 6 1 4 6 4 3 3 1 3 3 3 2 1 4 2 4 2 1 3 1 4 3 5 3 3 1 1 4 6 5 1 3 9 2 6 7 7 7 8 6 5
3 0 4 4 4 1 4 3 4 3 4 4 4 1 4 5 0 4 3 2 1 3 4 5 1 3 8 7 5 3 2 4 4 3 5 4 8 2 5 5 3 7 7 5 5
2 3 4 5 1 4 2 3 3 1 2 2 3 4 3 2 4 4 6 4 2 2 5 5 3 5 5 7 3 5 8 2 5 3 1 4 8 6 6 5 0 4 4 4 5
3 1 3 1 2 2 0 2 3 4 1 2 2 3 5 3 2 4 3 4 1 2 3 4 3 1 4 5 2 2 5 3 2 1 2 6 3 6 6 7 4 4 5 6 5
2 2 4 2 1 2 1 2 2 3 2 2 3 5 1 6 6 1 4 1 2 3 2 3 1 1 3 3 3 3 6 4 4 1 3 4 5 3 5 5 5 5 7 7 6
2 2 3 2 2 0 2 2 3 1 3 2 5 5 3 4 5 4 5 1 3 1 2 3 3 3 4 5 2 3 3 3 2 3 2 3 4 7 8 8 5 5 7 8 7
Wind_Direction
354 352 351 346 341 336 327 325 322 321 319 320 322 326 325 326 309 190 235 213 159 157 126 133 163 209 114 150 114 103 67 141 187 167 199 162 128 38 35 128 65 61 142 168 132
355 351 347 344 338 334 325 324 320 316 316 320 324 323 329 338 273 251 240 133 145 163 119 155 163 150 357 126 38 85 103 203 196 184 196 172 129 139 138 153 154 46 43 119 134
354 353 348 341 338 331 321 321 321 316 313 318 322 325 334 324 107 239 152 153 171 179 150 136 119 137 168 90 119 183 162 203 239 210 171 150 112 119 131 251 208 185 140 138 142
351 349 346 339 337 330 319 319 320 318 316 314 308 322 327 202 149 77 166 157 178 190 117 137 112 106 128 161 155 132 188 192 250 104 145 147 134 114 246 306 189 139 148 135 152
349 349 347 340 334 329 318 315 317 315 311 304 310 321 288 106 255 154 155 155 139 201 155 108 93 131 160 163 99 255 179 193 299 342 97 98 102 145 90 90 103 123 132 144 153
347 347 343 339 333 327 316 311 311 311 307 302 305 299 160 142 101 151 130 128 173 133 162 135 169 170 114 143 134 317 345 40 14 75 68 111 161 134 186 161 129 146 154 170 171
347 343 340 337 332 325 315 308 303 305 304 299 260 230 92 225 114 148 139 188 158 145 165 168 168 100 128 111 117 61 22 337 187 136 129 124 275 224 150 167 160 170 176 178 185
346 341 336 334 331 324 315 308 305 301 297 270 196 211 240 46 124 140 183 57 215 223 200 306 143 106 76 100 25 81 64 358 252 156 172 131 259 201 174 166 182 173 191 184 190
344 337 335 332 332 326 317 308 296 261 251 147 145 213 273 295 202 186 156 172 152 163 255 114 62 90 57 87 23 4 230 205 319 176 137 170 260 184 183 186 192 189 196 190 204
339 337 334 332 333 333 319 264 93 129 151 215 257 6 270 239 237 146 174 113 130 137 76 92 58 76 35 91 233 206 223 224 215 200 180 196 250 171 193 199 217 213 182 197 205
337 336 332 330 333 337 340 52 24 8 102 196 201 218 302 290 260 213 144 114 89 62 146 219 96 216 222 201 234 204 204 220 198 189 134 212 229 190 198 211 223 233 203 220 219
331 333 330 329 328 322 290 157 159 163 317 237 233 275 248 335 310 217 122 122 144 213 124 35 246 241 217 218 190 201 220 241 214 61 156 106 299 218 209 222 222 228 237 238 242
324 328 326 324 322 285 248 235 109 70 122 298 192 195 212 150 223 244 147 149 169 195 212 164 246 82 311 308 207 230 199 235 216 113 119 135 279 210 212 216 224 243 229 230 222
319 325 324 320 297 225 248 272 329 177 65 287 289 278 158 156 244 205 186 140 178 221 177 231 309 223 283 250 158 254 210 218 132 116 237 15 268 243 209 207 221 227 232 222 222
316 326 322 330 290 184 166 328 131 63 56 305 306 201 80 170 184 252 166 92 211 196 115 257 271 257 250 240 165 233 204 205 140 130 91 250 86 263 37 248 229 223 227 232 227
317 321 318 172 224 246 332 320 58 42 32 329 349 359 125 5 302 320 143 111 183 144 213 250 191 203 223 262 176 90 70 46 60 99 198 204 152 280 206 221 213 214 223 229 203
322 308 262 313 224 333 310 69 43 110 328 335 332 34 345 301 309 190 192 92 158 109 286 325 279 255 186 96 51 68 58 318 331 348 238 165 126 245 252 245 239 193 203 201 174
326 278 236 234 316 348 75 54 100 238 266 300 354 358 61 355 313 352 100 147 194 118 139 200 321 285 213 189 203 187 159 167 232 230 271 181 236 259 238 270 233 191 176 168 172
320 227 271 263 205 332 75 67 205 209 259 351 9 60 333 326 308 335 25 199 204 175 166 178 263 264 197 208 148 193 188 173 127 34 68 251 294 299 281 296 198 176 167 199 207
328 8 278 49 155 78 75 207 220 218 273 68 101 221 335 336 318 20 162 304 324 118 130 303 320 279 309 57 5 175 158 19 10 287 289 305 283 249 249 239 217 205 204 210 202
23 54 295 84 62 51 138 222 239 230 203 193 189 142 252 319 329 272 225 54 343 338 101 108 107 294 356 329 240 5 10 55 114 131 194 292 264 218 224 217 208 211 202 201 201
76 56 319 28 57 27 152 197 222 215 221 166 110 126 150 238 288 281 269 174 174 240 127 104 141 248 254 325 305 9 5 139 120 261 124 158 271 323 286 280 240 193 189 188 203
75 225 324 76 115 302 279 272 226 202 214 177 162 169 204 181 47 208 281 284 232 157 169 187 81 17 350 354 359 28 320 110 108 84 203 146 269 336 319 314 261 175 165 175 178
86 69 347 47 46 144 208 245 264 203 139 123 137 155 142 100 209 312 332 344 33 53 61 97 97 141 195 226 204 306 307 169 139 129 200 237 308 326 302 287 355 68 105 90 59
38 222 199 201 354 63 238 319 223 209 95 146 63 142 155 118 305 197 243 276 228 255 62 97 129 163 248 250 228 21 315 73 95 109 106 288 285 308 312 247 190 140 84 94 98
71 86 18 90 16 297 10 176 282 310 180 239 175 207 183 154 186 282 44 243 258 22 68 352 151 116 332 27 312 89 12 47 51 49 292 308 297 9 337 58 86 102 113 98 81
322 322 99 343 27 32 253 188 211 208 271 216 179 148 207 232 234 170 179 302 269 165 99 70 94 57 274 334 34 29 338 343 311 35 322 346 320 336 22 35 49 94 112 139 147